Wind_Speed
49 48 47 49 50 51 51 52 52 52 52 52 52 50 48 47 49 51 52 52 53 53 53 53 53 53 53 53 53 53 53 52 52 52 52 52 53 54 54 54 54 54 54 54 54 55 55 55 56 56 57 57 57 57 58 58 58 58 58 58 58 58 57 57 57 58 58 58 57 54 51 48 44 39 37 37 38 36 34 34 35 42 51 59 67 69 64
48 47 46 48 50 50 51 52 52 52 52 51 49 47 46 47 48 50 52 53 52 52 51 52 52 52 53 52 51 51 51 51 52 52 52 53 53 54 54 54 54 54 54 54 55 55 55 56 56 57 57 58 58 58 58 58 59 59 60 60 59 59 59 59 59 59 59 59 58 56 53 49 45 40 37 36 36 36 34 33 35 39 48 57 65 70 69
48 46 45 47 50 51 51 52 51 50 49 45 44 45 46 47 49 50 52 52 52 52 51 52 52 51 50 49 49 49 50 51 52 53 54 54 54 54 54 54 55 55 54 55 55 55 55 56 56 57 57 58 58 59 59 59 60 60 61 61 61 60 60 60 60 60 60 60 59 57 55 51 47 42 38 36 35 36 34 34 35 38 45 54 62 68 70
48 46 45 47 51 52 51 50 50 48 45 43 44 45 45 47 49 50 50 50 50 52 52 52 52 52 51 50 50 50 51 52 53 54 54 55 55 55 54 55 55 55 55 55 56 56 56 56 56 57 58 58 58 59 60 60 60 61 62 62 62 62 62 62 62 62 62 61 60 59 57 53 48 44 40 37 35 35 35 34 36 39 44 52 59 66 70
48 47 45 46 50 52 50 48 47 45 44 44 45 46 45 45 46 48 49 50 50 52 52 52 52 52 51 52 52 52 53 53 54 54 54 55 56 55 55 55 55 55 56 56 56 56 56 57 57 58 58 59 59 60 60 61 61 62 63 63 63 64 64 64 64 64 63 63 62 61 59 56 51 45 41 38 36 36 35 35 37 40 44 50 57 64 69
46 46 45 46 49 49 47 45 44 44 43 42 43 44 45 46 48 50 51 52 52 52 53 53 53 52 52 52 51 51 51 52 53 54 54 55 56 56 56 56 55 56 56 57 57 57 57 58 58 59 59 60 60 61 62 62 63 64 64 65 65 66 66 66 66 65 65 64 64 63 62 59 54 47 42 39 37 37 37 36 37 40 45 50 56 63 68
47 47 47 47 47 46 46 46 45 44 44 44 45 47 48 49 51 51 52 52 53 53 53 54 54 53 52 51 50 50 50 51 53 54 54 55 55 56 56 56 56 56 57 57 58 58 58 59 60 60 61 61 62 63 64 64 65 66 66 67 67 67 68 68 67 67 67 66 66 66 65 62 58 51 44 40 38 38 39 38 38 40 45 50 55 61 67
48 48 47 46 45 45 47 47 46 46 47 48 49 49 49 50 51 51 52 53 54 54 54 53 53 53 52 51 51 51 51 52 53 54 55 55 55 55 56 57 57 57 58 59 60 60 60 61 61 62 62 63 64 65 66 67 67 68 68 69 69 69 69 69 69 69 69 68 68 68 67 65 62 56 48 42 39 39 40 41 40 41 45 50 54 59 65
47 46 45 45 46 47 47 47 47 48 48 48 48 49 50 51 51 52 53 53 53 53 53 52 51 51 51 51 51 52 52 53 54 54 55 55 56 56 56 56 57 58 60 61 61 62 62 62 63 64 64 66 67 68 69 69 70 70 71 71 71 71 71 71 71 71 72 71 71 70 69 67 64 59 52 45 40 39 41 44 43 43 45 50 54 58 62
46 45 44 45 48 48 48 48 48 49 49 50 50 51 52 52 51 51 52 53 53 53 52 52 52 52 52 53 54 54 55 55 55 55 55 55 56 56 56 57 58 59 61 62 64 64 64 64 65 66 67 68 69 70 71 71 72 72 73 73 73 73 73 73 74 74 74 75 74 73 71 68 64 60 55 49 43 40 41 45 47 46 46 49 54 58 60
44 45 46 47 47 47 48 49 50 50 51 52 52 51 51 50 50 51 52 52 53 53 53 53 54 54 55 55 56 56 56 56 55 56 56 56 56 56 57 58 59 60 62 63 65 66 66 67 68 68 69 70 71 71 72 73 73 74 74 75 75 75 75 76 76 77 78 78 76 74 71 67 64 60 57 52 47 43 41 45 49 50 49 49 53 57 61
45 47 48 48 47 48 49 51 51 51 52 52 52 51 50 51 51 52 52 53 53 54 54 55 55 56 57 57 56 56 56 56 56 56 56 56 56 57 58 58 59 61 62 64 65 67 67 68 69 70 70 71 72 73 74 74 75 76 76 76 77 77 78 79 80 81 81 79 77 73 69 66 62 60 58 55 51 47 43 43 49 53 54 53 53 56 60
46 47 48 48 49 51 52 52 52 53 53 53 52 50 50 52 54 54 54 54 55 55 56 57 57 58 57 56 56 56 56 56 56 57 57 57 57 58 59 59 60 61 62 63 65 66 67 68 69 70 71 73 74 75 75 76 77 77 78 79 80 80 81 82 83 83 81 77 74 70 66 64 61 59 58 57 55 52 48 45 47 53 57 57 57 57 59
47 47 49 50 51 52 53 53 54 54 53 53 52 51 53 56 56 56 56 56 56 57 58 59 58 58 57 57 56 56 57 57 57 57 57 58 58 58 59 60 61 62 63 64 65 66 68 69 70 72 73 74 75 76 77 78 79 80 81 82 83 84 85 85 83 80 77 73 69 66 64 62 60 59 59 58 57 56 53 49 47 50 57 61 61 61 60
48 49 50 51 52 53 54 54 54 54 54 53 54 55 57 58 58 57 57 58 59 59 59 59 59 59 58 57 57 56 57 57 57 58 58 59 59 59 60 61 62 63 64 65 67 68 69 71 72 74 75 76 78 79 80 81 82 84 85 86 86 86 84 82 79 75 72 69 66 64 63 61 60 60 60 59 59 58 57 55 51 50 54 60 64 65 64
49 50 50 51 52 52 53 53 54 55 56 56 57 57 58 58 58 58 58 59 59 59 59 59 58 58 58 57 57 57 57 58 58 59 59 60 61 61 62 63 64 65 67 68 69 70 71 73 74 76 77 78 80 81 83 84 86 87 87 87 85 83 80 77 74 72 70 68 67 66 64 63 63 62 61 61 61 61 60 59 57 54 53 57 64 67 68
50 50 50 52 52 52 52 53 54 55 56 57 57 58 58 58 58 58 58 57 58 58 57 57 57 57 57 57 57 58 58 58 59 60 60 61 62 63 64 65 66 67 69 70 71 72 74 75 76 78 79 81 83 84 86 87 87 86 85 83 81 78 77 75 74 73 72 71 71 70 69 67 66 66 65 64 63 63 62 62 62 60 57 56 60 66 70
49 49 50 50 51 51 52 53 54 55 55 55 56 56 56 56 56 56 56 56 56 56 56 57 57 57 57 58 58 58 59 59 60 61 62 63 64 65 66 67 68 69 71 72 73 74 76 78 79 81 82 84 85 85 85 84 82 81 79 79 78 78 78 77 77 77 76 75 74 73 71 70 69 68 67 66 66 65 65 64 64 64 63 60 59 63 69
47 47 48 48 49 49 50 51 52 52 52 53 53 53 53 54 54 54 54 55 55 55 56 56 57 57 58 58 59 59 60 61 62 62 63 64 65 66 67 69 70 71 72 74 75 77 79 81 82 83 83 83 82 80 79 78 78 78 78 79 79 79 79 79 78 77 75 74 72 71 69 68 67 67 66 66 66 67 67 67 66 65 66 66 63 61 64
45 45 45 46 47 47 47 48 49 50 50 51 51 52 52 53 53 54 54 55 55 56 56 57 57 58 59 59 60 60 61 62 63 64 65 66 67 68 69 71 72 74 75 77 78 80 80 81 80 79 78 77 76 76 77 77 78 79 79 79 79 78 77 76 74 72 71 69 68 66 65 64 64 64 63 63 64 65 66 68 68 67 67 68 68 65 64
43 44 44 45 46 46 47 48 49 49 50 51 52 52 53 54 54 55 55 56 56 56 57 57 58 59 59 60 61 62 63 63 64 65 66 68 69 71 72 74 75 76 77 77 77 77 76 75 74 74 74 74 75 76 77 77 77 77 76 75 74 73 71 70 69 68 67 66 65 64 62 61 61 61 61 61 62 63 64 66 68 68 68 68 69 69 68
43 44 44 45 46 47 48 49 49 50 51 51 52 53 54 55 55 56 56 56 57 57 57 58 59 60 61 62 62 63 65 66 67 68 70 71 72 73 74 74 74 74 73 72 71 71 71 71 72 73 73 74 75 74 74 73 73 72 71 70 69 69 68 67 66 66 65 65 64 63 62 60 59 59 59 59 60 61 62 63 65 66 67 68 69 70 71
45 45 46 46 47 48 49 50 51 51 52 53 54 54 55 55 56 56 57 57 58 58 59 60 61 62 63 64 65 66 68 69 70 70 71 71 71 71 70 70 69 68 68 68 68 69 70 71 71 71 71 71 70 70 69 69 68 68 67 67 66 65 64 63 62 61 61 60 60 60 60 60 59 58 57 57 58 59 60 62 63 64 65 66 68 70 71
47 47 48 49 50 50 51 52 53 53 54 55 55 56 57 57 58 58 59 59 60 61 62 63 64 65 66 67 68 68 69 69 69 68 68 67 66 66 65 65 65 66 66 67 68 69 69 69 68 67 67 66 66 66 66 65 65 64 63 62 61 60 58 57 57 57 56 56 55 55 56 57 57 57 56 55 56 56 58 59 60 62 63 64 65 67 70
49 50 52 52 53 53 54 55 55 56 57 57 58 59 59 60 61 61 62 63 63 64 65 66 66 66 67 67 66 66 65 64 63 63 63 63 63 63 64 64 65 65 66 66 66 66 65 64 63 63 62 62 62 62 62 61 60 59 58 57 56 55 54 53 52 52 53 53 53 52 52 52 53 54 55 55 54 54 55 57 57 59 61 63 64 64 66
53 54 54 55 55 56 56 57 58 58 59 59 60 61 61 62 62 63 63 63 64 64 64 64 64 63 63 62 62 61 60 60 60 61 61 62 62 63 63 64 64 63 63 62 61 60 60 59 59 59 58 58 58 57 56 56 55 55 55 54 54 53 52 50 49 49 49 51 51 52 51 50 49 49 51 52 53 53 54 55 56 56 58 61 63 64 65
53 54 54 55 56 56 56 57 58 58 59 59 59 60 60 60 61 61 61 61 61 61 61 60 60 59 59 58 58 58 59 59 60 60 61 61 62 62 61 61 60 59 58 57 56 56 56 55 55 55 54 53 52 52 52 52 53 53 53 53 52 52 52 51 50 48 47 47 48 50 51 51 49 47 46 48 50 51 52 53 54 55 56 58 60 63 64
53 53 54 54 55 55 56 56 57 57 57 57 57 57 57 57 57 57 57 58 58 58 58 58 57 57 57 57 57 58 58 59 59 60 60 59 59 58 57 55 55 54 53 53 53 53 52 52 51 50 49 48 48 48 49 50 52 52 53 53 52 52 52 52 51 49 47 45 43 44 46 48 49 48 47 45 46 48 49 51 52 53 54 56 58 60 63
52 52 53 54 54 54 54 54 55 55 54 54 54 54 54 54 54 55 55 55 56 56 56 56 56 56 57 57 57 57 58 57 57 56 55 54 53 52 52 51 51 51 51 51 50 49 48 46 45 45 45 45 46 47 48 49 51 52 53 53 53 53 52 52 51 50 47 44 41 39 39 42 45 47 47 46 45 45 46 48 50 51 52 54 56 59 61
50 50 51 51 51 51 52 52 52 52 52 51 52 52 52 52 52 53 53 54 54 54 55 55 55 55 55 55 55 54 53 52 51 51 50 50 49 49 50 50 49 49 48 46 45 43 42 42 42 42 43 44 45 46 47 48 49 50 51 52 52 52 51 51 50 49 48 46 42 38 36 36 38 41 44 45 45 44 44 45 47 49 50 52 54 57 59
48 48 49 49 49 49 50 50 50 50 50 50 50 50 50 50 50 51 51 51 52 52 51 51 51 51 50 50 49 49 48 48 47 47 47 48 48 48 47 47 45 44 42 40 39 38 39 39 40 41 42 43 43 44 45 46 47 48 49 49 49 49 49 48 48 48 48 47 45 42 37 35 34 36 38 41 43 43 43 43 44 46 48 49 51 54 57
44 45 45 45 46 46 46 46 46 46 46 46 46 46 46 46 46 47 47 47 47 46 46 46 46 46 46 46 46 46 45 45 45 45 45 45 44 43 42 41 39 38 37 36 36 37 37 38 39 39 40 41 42 43 43 44 44 45 46 46 46 46 46 46 46 46 46 47 47 45 42 38 36 35 35 36 38 40 41 42 42 43 45 47 49 51 53
40 40 41 41 41 41 42 42 42 42 42 42 42 42 42 43 43 43 43 43 43 43 43 43 43 43 44 44 44 43 43 42 42 41 40 39 38 37 37 36 35 35 35 35 35 36 36 36 37 38 39 40 40 41 41 41 42 42 43 44 44 44 44 44 44 45 45 46 46 46 45 42 39 36 34 34 35 37 39 40 41 41 42 44 46 48 50
35 36 37 37 38 38 38 39 39 39 39 40 40 40 40 40 41 41 41 41 41 41 41 41 41 41 41 40 39 38 37 36 35 35 34 34 34 34 34 34 34 35 35 35 34 34 34 34 35 36 38 38 38 38 39 39 40 40 41 41 42 42 43 43 44 44 44 45 45 46 46 45 43 39 36 33 32 33 35 37 39 40 41 42 43 46 48
30 31 32 33 34 34 35 35 35 36 36 37 37 37 38 38 38 38 38 38 38 37 37 36 36 35 35 34 33 32 31 31 31 31 31 32 32 33 33 34 34 34 34 33 33 32 32 33 34 35 36 36 36 37 37 38 38 39 40 40 41 42 42 43 43 44 44 44 45 45 46 46 45 43 40 37 34 32 32 33 36 38 39 40 41 43 45
23 25 26 27 28 29 29 30 30 31 31 32 32 32 33 33 33 33 32 32 31 30 30 29 29 29 28 28 28 28 28 29 29 30 31 32 32 32 33 33 33 33 33 32 32 31 31 31 33 34 34 34 35 35 36 37 37 38 39 40 41 41 42 43 44 44 44 44 44 44 45 45 45 44 43 41 38 35 32 31 32 35 37 38 39 41 43
16 17 18 19 20 21 22 22 23 23 24 24 25 25 25 25 25 25 25 25 25 24 25 25 25 25 25 26 27 27 28 29 30 30 31 31 32 32 32 32 32 31 31 31 30 29 29 30 32 32 33 33 34 34 35 36 37 38 39 40 41 41 42 43 43 44 43 43 43 43 44 44 44 44 43 42 40 37 34 32 31 32 34 36 37 38 40
12 13 14 14 15 15 16 16 17 18 18 19 19 20 20 20 20 21 21 21 21 22 22 23 24 25 25 26 27 28 29 30 30 30 30 31 31 32 32 31 31 30 29 29 28 28 28 29 30 31 31 32 33 34 35 36 37 38 39 40 41 41 42 43 43 43 43 43 43 43 43 43 43 43 43 42 41 39 37 35 32 31 32 34 35 36 37
10 11 11 12 12 13 13 14 14 15 16 16 17 17 17 18 19 19 20 20 21 22 22 23 24 25 26 27 28 29 29 30 30 30 30 30 31 31 31 31 30 29 29 28 27 27 27 29 29 30 31 32 33 34 35 36 38 39 40 40 41 41 42 42 43 43 43 43 43 43 43 43 43 42 42 42 41 40 39 37 35 33 32 33 33 34 35
7 7 8 8 9 10 10 11 12 13 14 14 15 16 17 18 19 19 20 21 22 23 24 24 25 26 27 28 29 29 30 30 30 30 30 30 30 30 30 29 29 29 28 27 26 26 27 28 28 29 30 31 33 34 35 37 38 39 40 40 41 41 42 42 43 43 43 43 43 43 43 43 42 42 42 41 41 40 39 38 37 35 34 33 33 33 33
6 6 7 8 8 9 11 12 13 14 14 15 16 17 18 19 20 21 22 22 23 24 25 26 26 27 28 28 29 29 29 29 29 29 30 29 29 29 28 28 28 28 27 26 26 26 27 27 28 30 31 32 33 34 35 37 38 39 40 41 41 42 42 42 43 43 43 42 42 43 43 43 43 42 41 41 41 41 40 39 37 36 34 33 33 33 33
7 7 8 9 9 10 12 13 14 15 16 17 17 18 19 20 21 22 22 23 24 25 25 26 27 27 28 28 28 28 29 29 29 28 28 28 28 28 27 27 27 26 25 25 25 26 26 27 29 30 31 33 33 34 35 37 38 39 40 41 42 42 43 43 43 43 43 43 43 43 43 43 44 43 43 42 41 41 40 40 38 36 34 33 31 32 32
8 8 9 10 10 11 12 13 14 15 16 17 18 18 19 20 21 21 22 23 24 24 25 26 26 26 27 27 27 27 27 27 27 27 27 27 27 27 27 26 26 25 25 24 25 25 26 28 30 31 32 33 33 34 35 36 38 39 40 41 42 43 43 44 44 44 44 44 44 44 43 44 44 44 44 43 42 41 41 40 39 37 35 33 31 31 31
7 8 9 9 10 11 12 13 15 15 16 17 18 18 19 20 20 21 21 22 23 23 24 24 24 24 24 25 25 25 25 25 25 25 25 26 26 26 26 25 25 24 24 24 24 25 27 28 30 31 32 32 33 34 35 36 37 39 40 41 42 43 44 44 44 45 45 45 45 45 45 45 45 45 45 44 43 42 41 40 40 39 37 35 33 31 30
7 8 9 10 11 12 13 14 14 15 16 17 17 18 18 19 19 20 20 21 22 22 22 22 22 22 22 22 22 22 23 23 24 24 25 25 25 25 24 24 24 23 23 23 24 26 27 29 30 30 31 32 33 34 35 36 38 39 40 41 42 44 45 45 45 46 46 46 46 46 46 46 46 46 46 45 44 42 41 39 39 39 38 36 34 32 30
8 9 10 11 12 12 13 14 15 15 16 17 17 18 18 19 19 20 20 20 21 21 21 21 20 20 20 21 21 21 22 23 24 24 24 24 24 23 23 23 23 23 23 24 25 27 28 28 29 30 31 32 33 35 36 37 38 40 41 42 43 44 45 46 47 47 47 47 47 47 47 47 47 47 47 46 44 43 41 39 38 38 38 37 36 34 31
10 11 11 12 13 13 14 15 15 16 16 17 17 18 18 19 19 20 20 20 20 20 20 20 20 20 20 20 21 21 22 23 23 23 23 23 23 23 22 22 22 23 24 25 26 27 28 28 29 30 31 33 34 36 37 38 39 40 41 42 44 45 46 47 47 48 48 48 48 48 48 48 48 48 48 47 45 43 41 39 38 37 38 38 37 36 34
12 12 13 13 14 14 15 15 16 16 16 17 17 18 18 19 19 19 20 20 20 19 19 19 19 19 20 20 21 21 22 22 22 22 22 21 22 22 22 22 23 24 25 26 26 27 27 28 29 30 32 33 35 37 38 39 41 41 42 43 44 45 46 47 48 49 49 49 49 49 48 48 49 49 49 48 47 45 43 41 39 38 37 37 37 37 36
13 14 14 15 15 15 15 16 16 16 16 17 17 18 18 19 19 19 19 19 19 19 19 19 19 19 20 20 20 21 21 20 20 20 20 20 21 21 22 23 24 25 25 25 26 27 28 29 30 31 32 34 36 38 40 41 42 43 44 44 45 46 47 48 49 49 50 50 50 50 49 49 50 50 51 50 49 46 44 42 41 39 38 37 37 37 36
15 15 16 16 16 16 16 16 17 17 17 17 17 18 18 19 19 19 18 18 18 18 18 18 19 19 19 19 19 19 19 19 19 20 20 21 21 22 23 24 24 25 25 25 26 27 28 29 31 32 33 35 37 39 41 42 43 45 45 46 47 48 48 49 50 50 51 51 51 51 51 51 51 51 51 51 50 49 46 44 43 41 39 38 36 36 35
17 17 17 17 17 17 17 17 17 17 17 17 18 18 18 18 18 18 18 18 18 18 18 18 18 18 18 18 18 18 19 19 20 20 21 22 22 23 24 24 24 25 25 26 27 28 30 31 32 33 34 36 38 40 42 43 45 46 47 48 48 49 49 50 50 51 51 51 51 51 52 52 52 52 52 51 50 49 48 46 45 43 42 39 37 35 34
18 18 18 18 18 18 18 18 18 17 17 17 18 18 19 18 18 18 17 18 18 18 18 18 18 18 18 18 18 19 19 20 21 21 22 23 23 24 24 25 25 26 26 27 28 30 31 33 34 35 36 38 39 41 43 44 46 47 48 49 50 50 51 51 51 51 51 52 52 52 52 52 53 53 53 52 51 49 48 47 46 45 44 41 39 37 35
Wind_Direction
225 224 224 225 224 223 223 223 224 225 226 227 229 228 227 227 229 231 231 230 230 230 230 232 234 236 238 241 243 245 246 246 247 248 249 249 250 250 250 250 250 251 252 253 253 255 256 256 257 259 262 264 267 270 273 276 279 281 283 285 286 287 290 292 294 297 299 300 301 302 304 306 305 301 298 289 278 272 266 255 242 229 221 216 214 214 215
225 224 224 224 223 222 222 223 222 223 224 224 224 225 225 226 228 231 232 231 231 230 231 233 236 237 239 241 243 244 245 246 247 249 250 250 250 251 251 251 251 251 252 253 254 255 256 257 259 260 263 265 268 270 273 276 278 281 283 284 286 287 289 291 294 297 300 301 302 302 303 305 305 301 298 289 276 269 263 253 243 231 222 217 214 213 214
226 226 224 223 221 220 221 221 222 223 222 220 220 223 225 227 229 232 233 232 232 232 231 233 236 238 239 241 242 244 246 247 248 250 251 251 251 251 252 252 252 252 253 254 255 256 257 259 260 262 264 266 268 271 273 276 278 280 282 283 285 287 288 291 293 296 299 301 301 301 302 304 304 301 297 290 276 266 260 251 242 232 224 219 215 213 214
225 225 222 220 219 220 220 220 220 221 218 216 218 222 224 227 230 232 233 234 234 233 233 233 235 237 238 239 240 243 246 248 249 250 251 251 251 252 253 254 254 254 254 255 256 257 259 260 261 263 265 267 269 271 273 275 278 280 282 283 285 286 287 290 292 295 298 299 300 300 300 302 303 301 296 290 277 264 257 250 241 232 226 221 216 214 214
224 223 220 218 219 219 219 218 219 220 218 217 219 222 225 228 231 233 233 233 233 234 234 234 236 237 238 239 240 243 246 248 250 251 252 252 252 253 253 254 255 255 256 256 258 259 261 262 263 265 266 268 269 271 273 275 278 279 281 283 284 285 286 289 291 294 296 298 298 299 299 300 301 299 294 289 279 263 254 249 241 233 226 222 218 215 215
220 221 219 217 217 217 217 218 220 221 222 223 225 227 229 231 232 233 233 233 233 234 234 235 237 239 240 241 243 246 249 251 253 254 254 254 254 254 254 255 256 256 257 258 259 261 262 264 265 266 267 269 271 272 274 276 278 279 281 282 284 285 286 287 290 292 294 296 297 298 298 298 298 297 292 287 280 266 252 246 242 235 227 223 220 217 215
216 216 215 215 214 214 216 219 221 223 225 228 229 231 232 232 232 233 233 234 235 236 236 237 238 240 241 242 245 248 251 254 255 255 255 256 256 256 256 256 257 257 257 258 259 261 262 264 266 267 269 270 272 273 275 276 278 279 281 282 283 284 285 286 288 291 293 294 295 296 297 297 296 295 290 284 279 269 255 245 241 236 229 223 220 219 217
215 214 214 214 214 215 217 219 222 224 226 227 228 230 231 232 232 233 234 235 236 237 237 238 239 240 241 243 246 249 253 256 256 256 256 256 257 257 257 257 258 257 258 258 259 260 262 264 266 268 269 271 272 274 275 277 278 279 281 282 283 284 284 285 288 290 291 293 294 295 295 295 295 293 289 282 276 269 258 247 240 237 232 225 221 220 219
214 214 215 216 218 219 219 220 222 225 227 228 228 229 230 231 231 232 233 234 236 237 239 240 240 240 242 245 248 251 254 256 256 256 257 257 257 257 258 258 258 258 258 259 260 261 262 264 266 267 269 271 272 274 275 277 278 279 281 282 283 283 284 285 287 289 290 292 293 293 293 293 292 290 287 281 275 268 260 249 241 237 234 229 223 220 220
215 214 215 218 221 223 223 223 224 225 226 227 227 227 229 230 231 232 233 235 236 238 240 241 241 243 245 248 250 252 254 255 256 257 257 257 257 258 258 258 259 259 259 260 261 261 263 264 266 267 269 271 272 274 276 277 279 280 281 282 283 283 284 285 286 288 290 291 291 292 291 290 289 287 285 280 274 268 260 252 244 237 235 232 227 223 220
217 216 217 219 222 225 227 227 226 226 225 226 227 227 229 231 232 233 235 237 238 240 241 242 244 246 248 249 251 253 254 255 256 257 258 258 258 259 259 259 259 260 260 261 262 263 264 265 267 268 270 272 274 275 277 278 279 280 281 282 282 283 284 285 286 288 289 290 290 289 289 287 286 284 282 279 274 268 261 254 247 240 234 233 231 227 223
215 217 218 220 221 223 225 226 226 225 225 227 228 228 230 232 233 234 236 238 239 241 242 243 245 247 249 250 253 255 256 256 257 257 258 259 259 259 260 260 261 261 262 262 263 265 266 268 269 271 272 274 275 276 277 278 279 280 281 281 282 283 284 285 286 287 288 288 288 287 286 284 282 280 279 277 274 270 263 255 249 243 237 233 232 230 228
213 216 218 219 220 221 222 223 224 224 225 227 228 229 231 233 234 234 236 238 239 241 242 243 245 247 249 252 255 256 256 256 257 258 258 259 260 260 261 262 263 263 264 265 266 267 269 270 272 273 274 275 276 277 278 278 279 280 281 281 282 283 284 285 286 287 287 287 286 284 283 281 279 277 276 274 273 270 266 258 250 245 240 235 232 230 230
212 214 217 219 220 221 222 223 223 225 226 227 228 229 231 233 234 234 236 238 240 241 243 244 246 248 250 253 256 256 256 257 257 258 259 260 261 262 263 264 265 266 267 267 268 270 271 272 273 275 276 276 277 278 278 279 280 280 281 282 283 284 285 285 286 286 285 284 283 282 280 279 277 275 273 272 271 269 267 262 254 246 242 238 234 231 230
212 214 217 219 221 222 223 224 224 225 227 228 229 230 232 234 235 236 238 240 241 243 245 247 249 250 253 255 257 257 257 258 258 259 260 261 262 263 264 265 266 268 269 270 271 272 273 274 275 276 276 277 278 279 280 280 281 282 283 284 284 285 285 285 285 284 283 282 281 280 279 277 275 274 272 270 269 268 266 263 258 251 244 240 237 234 231
213 214 217 220 222 223 224 225 226 227 228 229 231 232 235 237 239 240 241 243 245 247 248 250 251 253 254 256 257 258 258 259 259 260 261 262 263 265 266 267 268 269 270 272 272 273 274 275 276 276 277 278 279 280 281 282 283 284 284 285 285 285 285 284 284 283 282 282 281 280 278 277 275 273 271 269 268 266 264 263 260 255 248 242 239 236 233
215 216 219 221 223 225 226 227 228 229 231 232 234 236 238 240 242 243 245 247 248 250 251 252 253 254 255 256 257 259 259 260 261 263 264 264 266 267 268 269 270 271 272 273 274 274 275 276 277 278 279 279 281 282 283 283 284 285 285 285 285 285 284 284 283 283 282 281 280 279 278 276 275 272 270 269 267 265 263 261 260 257 252 246 241 238 235
219 220 222 224 226 227 228 230 231 233 234 236 238 239 241 243 244 246 247 248 249 250 251 252 253 254 256 257 259 260 261 262 263 264 265 266 267 268 269 270 271 272 273 274 275 276 277 277 278 279 280 281 282 283 283 283 284 284 284 284 284 284 284 283 283 283 282 281 280 279 278 276 274 272 270 267 265 263 261 259 258 256 254 250 244 240 237
220 221 223 225 227 228 230 232 234 236 237 239 240 242 243 244 245 246 247 248 249 250 251 252 254 255 257 258 260 261 262 263 264 265 266 267 269 270 271 272 273 274 274 275 276 277 278 279 280 281 281 282 282 283 283 283 283 283 284 284 284 284 284 284 283 283 282 281 280 279 277 276 274 272 269 267 264 262 260 258 256 254 253 251 247 243 239
222 222 223 225 226 228 230 231 233 235 236 238 239 241 242 243 244 246 247 248 249 250 252 253 255 256 258 259 261 262 263 265 266 267 268 269 270 271 272 273 274 275 276 277 278 279 279 280 281 281 282 282 282 283 283 284 284 284 285 285 285 285 285 285 284 284 283 282 281 279 278 276 274 272 270 267 265 262 260 258 256 253 251 250 249 245 241
225 226 226 227 228 229 231 233 234 235 237 238 240 241 242 244 245 246 248 249 251 252 254 255 257 259 260 261 262 264 265 266 267 268 270 271 272 273 274 275 276 276 277 278 278 279 280 280 281 281 282 283 283 284 284 284 285 285 285 285 285 285 286 286 286 285 285 284 283 281 279 277 275 273 270 268 266 263 260 258 256 254 251 248 247 246 243
229 229 230 231 231 232 233 235 236 237 239 240 241 243 244 245 247 248 250 252 253 255 256 258 259 261 262 263 264 265 267 268 269 270 271 272 273 274 275 276 276 277 277 278 279 279 280 281 282 282 283 283 284 284 284 285 285 285 285 286 286 287 287 287 287 286 286 285 284 283 282 279 277 274 272 269 266 264 261 259 256 255 253 250 247 245 244
232 232 233 234 234 235 236 237 238 240 241 242 244 245 247 248 250 252 253 255 256 258 259 260 261 262 263 265 266 267 268 269 271 272 272 273 274 275 275 276 276 277 278 279 280 280 281 282 282 283 283 284 284 284 285 285 286 286 286 287 287 287 287 287 287 286 285 284 283 282 282 280 279 276 273 271 268 265 262 260 257 255 254 252 248 245 244
235 236 236 237 238 238 239 240 241 242 244 245 247 248 250 251 253 254 255 257 258 259 260 261 262 264 265 266 267 269 270 270 271 272 273 273 274 275 275 276 277 278 278 279 280 281 281 282 282 283 283 284 284 285 285 286 287 287 288 288 289 289 289 289 288 288 287 285 284 282 280 279 278 277 274 272 270 267 264 261 259 256 254 252 250 247 244
238 239 240 240 241 242 242 243 244 245 247 248 249 250 252 253 255 256 257 258 260 261 262 263 264 265 266 267 268 269 270 270 271 272 272 273 274 274 275 276 277 278 279 279 280 280 281 282 282 283 284 284 285 286 287 288 288 289 290 290 291 291 291 291 290 290 290 289 287 285 282 279 277 276 275 273 270 268 265 263 260 257 255 253 251 248 245
241 241 242 243 244 245 246 247 248 249 250 251 252 253 254 256 257 258 259 260 261 262 263 264 265 266 266 267 268 269 269 270 271 272 272 273 274 275 276 277 277 278 278 279 279 280 281 282 283 284 285 286 287 288 289 290 291 292 293 294 294 295 295 295 294 294 293 292 291 289 287 284 280 276 274 273 271 268 266 264 262 259 256 254 252 250 247
244 245 246 247 248 249 249 250 251 252 253 254 255 256 257 258 259 259 260 261 261 262 263 263 264 265 266 267 267 268 269 270 271 272 273 274 275 275 276 277 277 277 278 279 279 280 282 283 284 285 287 288 289 290 291 293 294 295 296 297 299 300 300 300 299 298 296 294 292 291 290 288 286 282 277 274 272 270 267 265 262 260 257 255 253 252 250
247 247 248 249 250 250 251 252 252 253 254 255 255 256 257 258 258 259 259 260 260 261 262 262 263 264 265 266 267 268 269 270 271 272 273 274 274 275 276 276 277 277 278 279 281 282 283 285 286 287 288 289 291 293 295 296 298 299 300 301 302 302 302 302 301 300 299 296 293 290 288 288 287 286 283 278 274 271 269 266 263 261 259 256 254 252 251
247 247 248 248 249 250 250 251 252 252 253 254 255 255 256 256 257 258 258 259 260 261 261 262 264 265 266 267 268 269 270 271 271 272 272 273 274 274 275 276 277 278 279 281 282 284 285 286 287 288 290 292 294 296 298 299 300 301 301 302 303 303 303 303 303 302 301 299 296 291 287 286 285 285 285 283 279 275 271 268 265 262 259 257 255 254 252
246 246 247 247 248 248 249 250 251 251 252 253 254 255 255 256 257 258 258 259 260 261 262 263 264 265 266 267 268 268 269 269 270 271 271 272 273 274 276 277 278 279 280 282 283 284 285 286 288 291 293 295 297 298 299 299 300 300 301 301 302 303 304 304 305 305 305 303 301 297 292 288 285 284 284 284 282 279 274 271 268 264 261 258 255 254 253
246 247 247 248 248 249 249 250 251 252 253 253 254 255 256 256 257 258 258 259 260 261 262 263 264 264 265 265 266 266 267 268 269 270 271 273 274 275 276 277 278 279 280 281 283 284 286 288 291 293 295 296 297 297 298 298 298 299 300 301 302 304 305 306 307 308 308 308 307 304 301 296 292 288 285 284 283 281 278 274 270 267 264 260 257 254 253
245 246 246 247 248 248 249 250 250 251 252 253 254 254 255 256 257 257 258 259 259 260 261 261 262 262 263 264 264 266 267 268 269 271 272 273 273 274 275 276 277 278 280 282 284 286 288 290 292 293 295 296 296 296 297 298 299 300 301 302 304 305 307 308 310 311 311 311 311 309 307 305 301 296 292 288 284 282 280 278 274 269 266 263 260 257 254
242 243 244 245 245 246 247 248 248 249 250 250 251 252 253 254 254 255 256 257 258 258 259 259 260 261 262 263 265 266 267 268 269 270 270 271 271 272 273 275 277 279 281 283 285 287 289 291 292 294 294 295 296 297 298 299 301 302 303 305 307 308 310 311 312 313 313 314 313 312 311 309 306 303 299 295 290 286 282 280 277 273 269 265 262 260 257
239 240 241 242 243 244 245 246 246 247 248 248 249 250 250 251 252 253 254 255 256 257 258 259 260 261 262 263 264 265 266 266 266 267 267 268 270 272 274 277 279 281 283 285 286 288 289 290 292 293 295 296 297 298 300 301 303 305 306 308 309 311 312 313 314 315 315 315 315 314 313 312 310 308 305 300 295 290 286 282 279 276 272 268 265 262 259
234 236 237 238 239 240 241 242 243 244 245 246 247 248 248 249 250 251 253 254 255 256 257 258 259 260 260 261 262 262 262 263 263 265 266 269 271 274 276 278 280 282 284 286 287 288 289 291 293 294 295 297 299 300 303 305 306 308 310 311 313 314 315 316 317 317 318 318 317 316 315 314 313 312 310 307 303 297 292 287 283 279 275 271 268 264 261
227 229 231 232 234 236 237 239 240 241 242 243 244 245 246 247 248 249 250 252 252 253 254 254 255 256 256 257 259 260 261 263 264 266 268 270 273 274 276 278 280 282 284 285 287 288 290 292 293 294 296 298 300 303 306 308 310 312 313 315 316 317 318 319 319 319 319 319 319 318 316 315 314 313 312 311 308 304 299 294 289 283 278 274 270 267 264
212 216 220 222 225 227 229 230 232 234 235 236 237 239 240 241 242 244 245 246 247 248 249 250 252 254 256 258 260 261 263 265 266 268 270 271 273 274 276 277 279 281 283 285 287 289 291 292 293 295 297 300 303 306 309 312 314 315 317 318 319 320 320 321 321 321 321 320 320 319 318 317 315 314 313 312 310 308 305 301 296 290 284 278 274 270 266
195 199 203 207 210 212 215 217 220 222 224 226 228 230 233 235 238 241 243 245 247 249 251 253 255 257 259 260 261 263 264 265 267 268 270 271 273 274 276 278 280 282 284 286 287 289 291 291 293 296 299 303 307 310 314 316 317 318 319 320 321 322 322 322 322 322 322 322 322 321 320 319 318 317 316 315 313 312 309 306 302 297 291 285 279 274 270
189 193 198 201 205 208 212 215 218 221 224 227 230 233 236 239 243 246 248 250 252 254 255 257 258 259 260 261 262 264 265 266 268 269 270 271 273 275 278 281 284 286 287 288 289 290 290 292 295 298 303 307 311 315 317 319 320 320 321 322 323 323 323 324 324 324 324 324 324 324 323 322 321 320 319 317 316 314 312 310 308 304 299 292 286 280 274
196 202 207 212 217 221 224 228 231 233 235 238 240 243 245 248 250 252 253 255 256 257 258 259 260 261 262 263 264 266 267 268 269 271 271 272 275 277 280 283 286 287 288 288 289 290 291 293 297 302 307 311 315 318 319 320 321 322 322 323 324 324 325 325 325 325 325 326 326 326 325 325 324 323 322 320 318 316 314 312 310 307 304 299 293 287 281
220 225 229 232 235 238 240 243 244 246 247 247 248 250 251 253 254 256 257 258 259 260 261 262 262 263 264 265 266 268 269 270 271 272 273 275 277 279 282 284 285 286 286 287 288 289 292 297 302 307 311 315 318 319 320 321 322 323 323 324 325 326 326 326 326 327 327 327 327 328 328 327 326 325 324 323 321 318 316 314 312 310 307 303 299 294 288
231 235 239 241 243 245 247 250 251 252 253 254 254 255 256 257 259 260 261 262 263 263 263 264 264 265 266 267 268 269 270 271 272 274 276 278 280 282 283 284 283 284 284 285 287 291 297 302 307 311 315 317 318 320 321 322 323 324 325 326 326 327 327 328 328 328 328 329 329 330 330 330 329 328 327 326 324 321 319 316 314 312 309 306 302 298 293
235 239 243 245 246 248 251 253 255 257 257 258 259 259 260 261 262 263 264 264 264 265 265 265 266 267 268 269 270 271 272 273 275 277 278 280 281 282 282 282 282 282 283 286 290 296 302 307 311 313 315 317 318 320 321 322 324 325 326 327 328 328 329 329 329 329 330 330 331 331 332 332 331 331 330 328 326 324 321 319 317 315 313 310 307 302 297
251 255 258 259 259 259 259 260 260 261 262 262 262 263 263 264 264 265 266 266 267 267 268 269 269 270 271 271 272 273 275 276 278 279 280 281 281 281 280 280 281 282 285 289 295 301 306 309 312 314 315 316 318 320 321 323 324 326 327 328 329 329 329 329 330 331 331 332 332 333 333 334 333 333 332 330 328 326 323 321 320 318 316 314 311 307 302
276 278 279 279 278 276 274 273 273 272 272 272 272 272 272 273 273 272 272 272 272 272 272 272 273 273 273 274 275 276 278 279 279 279 280 279 279 278 278 279 281 284 289 294 299 304 307 310 312 313 314 316 318 320 322 323 325 326 328 329 330 330 330 331 331 331 332 332 333 333 334 334 334 334 333 331 330 327 326 324 322 320 317 315 312 309 305
289 292 293 292 291 289 287 285 284 282 281 281 281 281 281 281 281 280 279 277 277 276 276 276 275 276 276 277 278 278 279 279 279 279 278 278 277 277 278 280 284 288 293 298 302 305 308 310 311 313 315 317 319 321 323 324 326 327 328 329 330 331 331 331 332 332 332 333 333 333 334 335 335 334 333 332 331 328 326 325 323 322 319 317 315 312 309
294 297 299 299 298 296 294 291 288 286 285 284 283 284 284 284 283 282 281 279 278 278 277 276 276 277 278 278 279 278 278 278 278 278 277 277 278 279 281 284 288 293 297 300 304 306 308 310 312 314 316 318 320 322 323 325 326 327 328 329 330 331 331 331 332 332 332 332 333 333 334 335 335 334 333 332 331 329 328 327 326 325 323 320 317 315 313
295 298 300 301 300 299 297 294 291 289 286 285 285 285 286 285 284 283 281 279 278 277 276 276 277 278 279 279 278 278 278 278 277 277 278 278 280 282 285 288 292 296 299 302 304 307 308 310 313 315 318 320 322 323 324 325 326 327 328 329 330 330 331 331 332 332 332 332 332 333 334 334 334 334 333 332 331 331 330 330 329 328 326 323 319 316 314
294 296 299 300 300 300 299 297 294 291 289 287 287 287 287 287 286 285 283 281 279 277 277 277 277 278 278 278 278 278 277 277 278 279 280 281 283 285 289 292 294 297 300 303 305 307 309 311 314 317 319 321 322 323 324 325 326 327 328 329 329 330 330 331 331 331 331 331 332 332 333 334 334 334 334 333 332 331 331 331 331 330 328 325 322 318 316
292 296 298 300 301 301 300 298 296 293 291 289 289 289 289 289 289 288 286 284 282 281 279 278 278 278 277 277 277 278 278 279 281 282 284 285 287 289 291 293 296 298 300 303 305 307 310 312 315 318 320 322 323 323 324 325 325 326 327 328 329 329 330 330 331 331 331 331 332 332 333 333 333 334 333 333 332 331 331 332 331 331 329 327 324 321 318
292 295 298 299 301 301 301 300 297 295 293 291 291 292 292 292 292 291 290 288 286 285 283 281 279 279 278 278 278 279 281 283 284 286 287 289 290 292 293 295 297 299 301 304 306 309 311 313 316 318 320 321 322 323 323 324 325 325 326 327 328 328 328 329 329 330 330 331 331 332 332 332 332 332 332 332 331 331 331 332 332 331 329 328 326 323 320
291 294 297 298 300 300 301 300 298 296 294 292 292 293 295 295 294 293 292 290 288 286 284 282 280 279 279 279 279 281 283 285 287 289 291 292 293 294 295 297 299 301 303 306 309 311 313 315 317 318 320 321 321 322 322 323 323 324 325 326 326 327 327 327 328 329 329 330 331 331 331 331 331 331 331 330 330 330 331 331 331 331 329 328 327 325 323
Height
10484 10488 10492 10493 10496 10500 10504 10507 10509 10513 10517 10519 10520 10524 10529 10531 10532 10533 10536 10541 10544 10547 10551 10553 10556 10560 10562 10564 10566 10567 10568 10570 10571 10572 10574 10575 10576 10576 10577 10579 10580 10582 10583 10584 10585 10586 10586 10586 10586 10587 10587 10587 10588 10587 10587 10586 10585 10584 10583 10582 10581 10580 10579 10577 10576 10574 10573 10571 10571 10570 10569 10567 10566 10564 10563 10560 10559 10558 10557 10558 10559 10563 10568 10573 10579 10586 10592
10481 10484 10488 10490 10493 10497 10500 10502 10504 10507 10510 10513 10517 10521 10524 10526 10527 10529 10531 10535 10540 10543 10547 10549 10552 10555 10558 10560 10561 10562 10563 10565 10566 10566 10568 10569 10570 10571 10572 10574 10575 10576 10578 10579 10580 10580 10581 10581 10581 10582 10582 10582 10582 10581 10581 10580 10578 10577 10576 10575 10574 10573 10572 10571 10570 10568 10567 10565 10564 10563 10562 10561 10560 10558 10557 10556 10554 10553 10553 10553 10554 10557 10561 10566 10571 10578 10583
10477 10480 10485 10488 10490 10492 10494 10497 10500 10503 10507 10512 10516 10518 10519 10521 10523 10525 10528 10532 10536 10539 10542 10545 10548 10551 10553 10555 10556 10557 10558 10560 10560 10561 10562 10563 10565 10566 10567 10568 10569 10571 10573 10574 10575 10575 10576 10576 10576 10576 10576 10576 10576 10575 10574 10573 10572 10571 10570 10568 10567 10566 10565 10564 10563 10562 10561 10559 10558 10557 10556 10555 10554 10553 10552 10551 10550 10549 10548 10548 10549 10551 10554 10559 10564 10570 10575
10473 10476 10481 10484 10486 10487 10490 10493 10497 10500 10505 10509 10511 10512 10514 10517 10519 10522 10525 10529 10532 10534 10537 10540 10543 10546 10548 10550 10551 10552 10553 10554 10555 10556 10557 10558 10559 10560 10561 10562 10564 10566 10568 10569 10570 10570 10570 10570 10570 10570 10570 10570 10570 10569 10568 10567 10566 10565 10563 10562 10561 10560 10559 10558 10557 10556 10554 10553 10552 10550 10549 10549 10548 10547 10546 10545 10545 10544 10544 10543 10544 10545 10548 10552 10557 10562 10567
10469 10473 10477 10481 10482 10483 10486 10490 10494 10497 10501 10504 10506 10509 10512 10515 10518 10520 10523 10525 10527 10530 10533 10536 10539 10541 10543 10544 10546 10547 10548 10550 10551 10551 10552 10553 10554 10555 10556 10557 10559 10561 10562 10563 10564 10564 10564 10564 10564 10564 10564 10564 10563 10563 10562 10561 10560 10559 10557 10556 10554 10553 10552 10551 10550 10549 10547 10546 10544 10543 10542 10542 10542 10541 10540 10539 10539 10539 10539 10539 10539 10540 10542 10545 10549 10554 10559
10466 10469 10473 10476 10478 10481 10486 10489 10492 10494 10498 10501 10505 10508 10510 10513 10515 10516 10518 10520 10523 10526 10529 10532 10534 10536 10538 10540 10541 10543 10544 10545 10546 10546 10547 10548 10548 10550 10551 10553 10554 10556 10557 10558 10558 10558 10558 10557 10557 10556 10556 10556 10556 10556 10555 10554 10553 10551 10550 10549 10548 10546 10545 10544 10543 10541 10540 10538 10537 10536 10535 10534 10535 10535 10534 10533 10533 10533 10534 10534 10534 10534 10536 10539 10542 10546 10551
10460 10464 10467 10471 10475 10480 10484 10486 10489 10492 10496 10499 10501 10504 10506 10508 10509 10512 10514 10517 10520 10522 10525 10527 10530 10532 10534 10535 10536 10538 10539 10540 10541 10542 10542 10543 10543 10544 10546 10547 10549 10550 10552 10552 10552 10552 10551 10550 10549 10549 10549 10549 10549 10548 10547 10546 10545 10544 10543 10542 10540 10539 10538 10536 10535 10534 10533 10531 10530 10528 10527 10527 10527 10527 10528 10527 10526 10527 10527 10528 10528 10529 10530 10532 10535 10539 10543
10457 10460 10465 10469 10473 10476 10479 10482 10486 10489 10491 10493 10496 10499 10502 10504 10506 10509 10511 10513 10515 10518 10520 10523 10525 10527 10529 10530 10531 10533 10534 10535 10536 10536 10536 10537 10538 10539 10540 10541 10543 10544 10545 10545 10546 10545 10544 10543 10543 10543 10542 10542 10541 10540 10539 10538 10537 10536 10534 10533 10532 10531 10530 10528 10527 10526 10524 10524 10523 10521 10520 10519 10519 10519 10520 10521 10520 10520 10520 10522 10523 10523 10524 10526 10528 10531 10535
10455 10459 10464 10468 10470 10472 10475 10478 10481 10484 10487 10490 10493 10495 10497 10498 10501 10504 10506 10509 10511 10513 10516 10519 10521 10522 10524 10526 10527 10527 10528 10529 10529 10530 10530 10531 10532 10533 10534 10535 10536 10537 10538 10538 10538 10537 10537 10537 10537 10536 10535 10534 10533 10532 10531 10530 10529 10527 10526 10525 10524 10523 10522 10520 10519 10517 10516 10515 10514 10514 10512 10511 10511 10511 10512 10513 10513 10513 10513 10514 10516 10517 10518 10520 10521 10524 10527
10453 10457 10461 10464 10465 10467 10471 10475 10477 10480 10483 10485 10487 10489 10491 10494 10498 10500 10502 10505 10507 10509 10512 10514 10516 10517 10519 10520 10521 10521 10522 10523 10523 10524 10524 10525 10526 10527 10528 10529 10529 10530 10531 10530 10530 10529 10530 10530 10530 10529 10528 10527 10526 10525 10523 10522 10521 10519 10518 10517 10515 10514 10513 10512 10510 10509 10507 10506 10505 10505 10504 10503 10502 10502 10503 10504 10505 10506 10506 10507 10508 10510 10511 10513 10515 10517 10519
10451 10454 10457 10459 10461 10465 10468 10471 10473 10476 10478 10479 10482 10485 10489 10492 10494 10497 10499 10501 10503 10505 10507 10508 10510 10512 10513 10513 10514 10515 10516 10517 10518 10518 10519 10519 10520 10521 10522 10522 10523 10523 10523 10523 10522 10521 10522 10522 10522 10521 10520 10519 10518 10517 10515 10514 10512 10510 10509 10507 10506 10505 10503 10502 10501 10500 10498 10497 10496 10495 10495 10494 10494 10493 10493 10494 10496 10497 10498 10499 10500 10502 10503 10505 10507 10510 10512
10446 10449 10452 10455 10458 10461 10463 10465 10469 10472 10474 10475 10479 10483 10486 10488 10489 10492 10494 10496 10498 10499 10501 10503 10505 10505 10506 10508 10509 10510 10511 10511 10512 10512 10513 10513 10514 10514 10515 10515 10516 10516 10516 10515 10514 10514 10514 10514 10513 10513 10512 10511 10510 10508 10506 10505 10503 10501 10500 10498 10497 10495 10494 10492 10491 10490 10488 10487 10486 10485 10485 10485 10485 10484 10484 10485 10486 10488 10490 10491 10492 10493 10495 10496 10499 10501 10504
10442 10445 10449 10451 10453 10455 10457 10461 10465 10467 10469 10472 10477 10481 10483 10483 10484 10486 10488 10490 10492 10494 10496 10497 10498 10499 10501 10503 10504 10504 10504 10505 10506 10506 10507 10507 10507 10507 10508 10508 10508 10509 10508 10508 10507 10506 10506 10505 10505 10504 10503 10502 10500 10499 10497 10495 10494 10492 10491 10489 10487 10486 10484 10483 10481 10479 10478 10477 10476 10475 10475 10474 10475 10475 10475 10475 10476 10478 10480 10482 10483 10485 10486 10488 10490 10492 10495
10440 10442 10444 10446 10449 10452 10454 10457 10461 10463 10466 10470 10474 10477 10476 10475 10478 10481 10483 10485 10487 10488 10490 10491 10493 10494 10496 10497 10498 10498 10499 10499 10500 10500 10500 10500 10501 10501 10501 10501 10501 10501 10501 10500 10500 10499 10498 10497 10496 10495 10494 10492 10490 10489 10487 10485 10484 10482 10480 10479 10477 10476 10474 10472 10471 10469 10467 10466 10466 10465 10464 10464 10465 10465 10465 10466 10466 10467 10469 10471 10474 10475 10477 10479 10480 10483 10485
10437 10439 10441 10443 10446 10448 10451 10454 10457 10460 10463 10466 10468 10469 10469 10470 10474 10477 10478 10480 10481 10483 10484 10486 10488 10489 10490 10491 10492 10492 10493 10493 10493 10493 10494 10494 10494 10494 10494 10494 10494 10493 10493 10493 10492 10491 10490 10489 10488 10486 10484 10482 10480 10478 10477 10475 10473 10471 10469 10467 10466 10464 10462 10461 10459 10458 10457 10456 10455 10454 10454 10454 10454 10454 10455 10456 10456 10457 10458 10460 10463 10465 10467 10469 10471 10473 10475
10434 10436 10438 10440 10442 10445 10448 10452 10454 10456 10458 10460 10462 10464 10465 10467 10469 10471 10473 10475 10476 10477 10479 10481 10482 10483 10484 10485 10486 10486 10486 10487 10487 10487 10487 10487 10487 10487 10487 10487 10486 10486 10485 10485 10484 10483 10482 10480 10479 10477 10475 10473 10470 10468 10466 10464 10461 10459 10457 10455 10453 10452 10450 10449 10447 10446 10446 10445 10445 10444 10444 10443 10443 10444 10444 10445 10446 10446 10447 10448 10451 10453 10456 10458 10460 10462 10465
10431 10434 10435 10437 10439 10443 10445 10448 10449 10450 10453 10455 10457 10459 10461 10463 10464 10466 10468 10470 10471 10472 10473 10475 10476 10477 10478 10478 10479 10479 10480 10480 10480 10480 10480 10480 10480 10480 10479 10479 10479 10478 10477 10476 10475 10474 10473 10471 10469 10467 10465 10463 10460 10458 10456 10453 10450 10448 10445 10443 10441 10439 10438 10437 10436 10435 10434 10434 10433 10433 10432 10432 10432 10432 10432 10433 10434 10435 10436 10437 10439 10441 10444 10446 10449 10451 10454
10428 10430 10432 10434 10437 10439 10441 10443 10444 10446 10448 10450 10452 10454 10456 10458 10459 10461 10462 10464 10465 10466 10467 10469 10470 10471 10472 10472 10473 10473 10473 10473 10473 10473 10473 10473 10473 10472 10472 10471 10471 10470 10469 10468 10466 10465 10463 10461 10459 10457 10455 10453 10450 10448 10445 10443 10440 10437 10435 10433 10430 10428 10427 10425 10424 10423 10422 10421 10421 10420 10419 10419 10419 10419 10419 10420 10421 10422 10423 10425 10427 10428 10431 10434 10436 10439 10442
10423 10426 10428 10430 10432 10435 10437 10438 10440 10442 10444 10446 10448 10449 10451 10452 10454 10456 10457 10458 10459 10461 10462 10463 10464 10464 10465 10466 10466 10466 10466 10466 10466 10466 10466 10466 10465 10465 10464 10463 10462 10461 10460 10459 10457 10455 10453 10451 10449 10447 10445 10442 10440 10437 10435 10432 10429 10427 10424 10422 10420 10418 10416 10414 10412 10411 10409 10408 10407 10407 10406 10406 10406 10406 10406 10407 10408 10408 10409 10411 10414 10416 10418 10420 10423 10427 10430
10420 10423 10425 10427 10429 10431 10433 10434 10436 10437 10439 10441 10443 10444 10445 10447 10449 10450 10451 10452 10454 10455 10456 10457 10458 10458 10459 10459 10460 10459 10459 10459 10459 10459 10459 10458 10458 10457 10456 10455 10454 10453 10451 10449 10448 10446 10443 10441 10439 10437 10434 10432 10430 10427 10425 10422 10419 10416 10413 10411 10409 10406 10404 10402 10400 10398 10396 10395 10394 10394 10393 10394 10393 10393 10393 10394 10394 10395 10396 10397 10399 10402 10405 10407 10410 10414 10417
10417 10419 10421 10423 10425 10427 10429 10430 10431 10433 10434 10436 10437 10438 10440 10441 10443 10444 10445 10447 10448 10449 10450 10451 10452 10452 10452 10453 10453 10452 10452 10452 10452 10452 10451 10451 10450 10448 10447 10446 10445 10443 10442 10440 10438 10436 10434 10432 10430 10427 10425 10422 10420 10417 10415 10412 10409 10406 10403 10401 10398 10396 10394 10392 10389 10387 10384 10383 10382 10381 10381 10381 10381 10380 10380 10381 10381 10382 10383 10384 10386 10388 10391 10395 10397 10400 10404
10413 10415 10417 10419 10421 10422 10424 10425 10426 10428 10429 10431 10432 10433 10434 10435 10437 10438 10440 10441 10442 10444 10445 10445 10445 10445 10445 10445 10445 10445 10445 10445 10444 10444 10443 10442 10441 10440 10439 10437 10436 10434 10432 10431 10429 10427 10425 10423 10420 10418 10416 10413 10410 10408 10405 10402 10399 10397 10394 10392 10389 10386 10384 10382 10379 10377 10374 10372 10370 10369 10368 10368 10368 10368 10368 10368 10368 10369 10370 10371 10372 10375 10378 10381 10384 10387 10390
10408 10410 10412 10414 10415 10417 10419 10420 10421 10423 10424 10425 10426 10427 10428 10430 10431 10433 10434 10435 10436 10437 10438 10438 10438 10438 10438 10438 10438 10438 10437 10437 10436 10436 10435 10433 10432 10431 10430 10428 10427 10425 10424 10422 10420 10418 10416 10414 10412 10409 10407 10404 10402 10399 10396 10393 10390 10388 10385 10383 10380 10378 10375 10372 10370 10367 10365 10363 10361 10359 10357 10356 10355 10356 10356 10356 10355 10356 10357 10358 10359 10362 10365 10367 10370 10374 10377
10403 10405 10406 10407 10409 10411 10413 10414 10416 10417 10419 10420 10421 10422 10423 10424 10425 10427 10428 10429 10429 10430 10430 10430 10430 10430 10430 10430 10430 10430 10429 10429 10428 10427 10426 10425 10424 10422 10421 10420 10419 10417 10416 10414 10412 10410 10408 10405 10403 10401 10399 10396 10393 10390 10387 10385 10382 10379 10377 10374 10372 10369 10367 10364 10361 10358 10355 10353 10352 10350 10347 10345 10344 10344 10344 10344 10344 10344 10345 10345 10347 10350 10351 10353 10356 10360 10363
10397 10399 10400 10401 10403 10405 10407 10408 10410 10411 10413 10414 10415 10416 10417 10418 10419 10420 10421 10421 10422 10422 10422 10422 10422 10422 10422 10422 10422 10421 10421 10420 10420 10419 10418 10417 10416 10415 10414 10413 10411 10410 10408 10406 10404 10402 10400 10398 10395 10393 10391 10388 10386 10383 10380 10377 10374 10371 10368 10366 10364 10361 10359 10356 10353 10350 10347 10344 10342 10340 10338 10336 10334 10333 10333 10333 10333 10333 10333 10334 10335 10337 10339 10340 10342 10346 10349
10390 10392 10393 10395 10397 10399 10400 10402 10403 10405 10406 10407 10408 10409 10410 10411 10412 10413 10413 10413 10414 10414 10414 10414 10414 10414 10414 10414 10414 10414 10413 10413 10412 10411 10410 10409 10408 10407 10406 10405 10404 10402 10400 10398 10396 10395 10393 10390 10388 10386 10384 10381 10378 10375 10372 10369 10366 10364 10361 10358 10355 10353 10350 10348 10345 10343 10339 10336 10333 10331 10328 10326 10325 10324 10323 10322 10322 10322 10323 10323 10324 10325 10327 10328 10329 10332 10335
10384 10385 10387 10389 10390 10392 10394 10395 10396 10397 10399 10400 10401 10402 10403 10404 10404 10405 10405 10406 10406 10406 10406 10406 10406 10407 10407 10407 10407 10406 10406 10405 10404 10404 10403 10402 10400 10399 10398 10397 10396 10394 10392 10391 10389 10387 10386 10384 10381 10379 10377 10374 10372 10369 10365 10362 10359 10356 10353 10351 10348 10345 10342 10339 10337 10335 10332 10329 10326 10323 10320 10317 10316 10314 10313 10312 10311 10311 10312 10313 10313 10314 10316 10317 10317 10319 10321
10377 10379 10381 10382 10383 10385 10386 10387 10389 10390 10391 10393 10394 10395 10396 10396 10397 10398 10398 10398 10398 10398 10399 10399 10399 10400 10400 10400 10399 10399 10399 10398 10397 10396 10395 10394 10393 10392 10391 10389 10388 10387 10385 10384 10382 10381 10379 10377 10375 10372 10370 10368 10365 10362 10359 10356 10353 10349 10346 10344 10341 10338 10335 10332 10329 10327 10325 10322 10320 10317 10313 10310 10307 10305 10304 10303 10302 10301 10301 10302 10303 10303 10305 10306 10306 10307 10308
10370 10372 10374 10375 10376 10378 10379 10380 10382 10383 10384 10386 10387 10388 10389 10390 10390 10391 10391 10391 10391 10391 10392 10393 10393 10393 10393 10393 10392 10392 10391 10390 10390 10389 10388 10387 10386 10385 10384 10382 10381 10380 10379 10377 10376 10374 10373 10371 10369 10367 10364 10362 10360 10357 10354 10350 10347 10343 10340 10337 10334 10332 10329 10325 10322 10319 10317 10315 10313 10311 10308 10304 10300 10298 10296 10295 10294 10293 10292 10292 10292 10293 10294 10295 10296 10296 10297
10364 10365 10367 10368 10370 10372 10373 10374 10375 10377 10378 10379 10380 10381 10382 10383 10383 10384 10384 10384 10384 10385 10385 10386 10386 10386 10386 10386 10385 10385 10384 10384 10383 10382 10381 10380 10379 10378 10377 10376 10374 10373 10372 10371 10370 10369 10367 10365 10363 10361 10359 10357 10354 10352 10349 10346 10342 10339 10335 10332 10329 10326 10323 10319 10315 10312 10309 10306 10304 10303 10301 10298 10295 10291 10289 10287 10285 10284 10284 10283 10282 10283 10283 10285 10286 10286 10286
10357 10358 10360 10362 10363 10365 10366 10368 10369 10370 10371 10372 10373 10374 10375 10376 10376 10377 10377 10377 10378 10378 10379 10379 10379 10379 10379 10379 10378 10378 10378 10377 10377 10376 10375 10374 10373 10372 10371 10370 10369 10368 10367 10366 10365 10363 10362 10360 10358 10356 10354 10352 10350 10347 10344 10341 10338 10335 10331 10327 10324 10320 10317 10314 10310 10305 10302 10298 10295 10293 10293 10291 10288 10285 10283 10280 10278 10276 10275 10275 10274 10273 10273 10274 10275 10276 10276
10350 10352 10354 10355 10357 10358 10360 10361 10363 10364 10365 10366 10367 10368 10369 10369 10370 10370 10371 10371 10372 10372 10373 10373 10373 10373 10373 10372 10372 10372 10372 10372 10371 10370 10369 10368 10367 10366 10365 10364 10363 10363 10362 10361 10360 10359 10357 10356 10354 10352 10350 10348 10345 10343 10340 10337 10334 10330 10327 10323 10319 10316 10312 10308 10305 10301 10296 10292 10288 10285 10284 10283 10281 10279 10277 10274 10272 10269 10268 10266 10265 10265 10265 10265 10265 10266 10267
10345 10347 10348 10350 10351 10353 10354 10355 10357 10358 10359 10360 10361 10362 10363 10364 10364 10364 10365 10365 10366 10367 10367 10367 10367 10367 10367 10367 10367 10367 10366 10366 10365 10364 10363 10363 10362 10361 10360 10359 10359 10358 10357 10356 10355 10354 10353 10351 10349 10347 10345 10343 10341 10338 10335 10333 10329 10326 10322 10318 10314 10311 10307 10303 10300 10296 10292 10288 10284 10279 10276 10274 10273 10272 10270 10268 10265 10263 10260 10259 10257 10256 10256 10256 10256 10256 10257
10340 10342 10343 10345 10346 10348 10349 10350 10352 10353 10354 10355 10356 10357 10357 10358 10359 10359 10359 10360 10360 10361 10362 10362 10362 10362 10361 10361 10361 10361 10361 10361 10360 10359 10358 10358 10357 10356 10356 10355 10354 10353 10353 10352 10351 10350 10348 10347 10345 10343 10341 10339 10337 10334 10331 10328 10325 10321 10317 10314 10310 10306 10302 10299 10295 10291 10287 10283 10279 10274 10270 10267 10265 10264 10262 10261 10259 10257 10254 10252 10250 10248 10248 10247 10247 10247 10248
10337 10338 10339 10341 10342 10343 10345 10346 10347 10348 10349 10350 10351 10352 10352 10353 10353 10354 10354 10355 10356 10356 10357 10357 10357 10357 10357 10357 10357 10357 10356 10356 10355 10355 10354 10353 10353 10352 10351 10351 10350 10349 10348 10347 10347 10346 10344 10343 10341 10339 10337 10334 10332 10330 10327 10323 10320 10316 10312 10309 10305 10301 10297 10293 10290 10286 10282 10278 10274 10270 10265 10262 10258 10256 10254 10253 10252 10250 10248 10245 10243 10241 10240 10239 10239 10238 10238
10333 10335 10336 10337 10338 10340 10341 10342 10343 10344 10345 10346 10347 10347 10348 10349 10349 10350 10350 10351 10352 10352 10352 10353 10353 10353 10353 10353 10353 10352 10352 10352 10351 10351 10350 10350 10349 10348 10348 10347 10346 10345 10344 10343 10342 10342 10341 10339 10337 10335 10333 10331 10328 10325 10322 10319 10315 10311 10308 10304 10300 10297 10293 10289 10285 10281 10277 10274 10270 10265 10261 10257 10253 10250 10248 10246 10244 10243 10241 10239 10237 10234 10232 10231 10231 10230 10230
10331 10332 10333 10335 10336 10337 10338 10339 10340 10341 10342 10342 10343 10344 10344 10345 10346 10346 10347 10348 10348 10349 10349 10349 10349 10349 10349 10349 10349 10349 10348 10348 10347 10347 10346 10346 10345 10344 10344 10343 10343 10342 10341 10340 10339 10338 10337 10335 10333 10331 10329 10326 10324 10321 10318 10314 10310 10306 10303 10299 10296 10292 10288 10284 10280 10276 10273 10269 10265 10261 10257 10253 10249 10245 10242 10240 10237 10235 10234 10232 10230 10228 10225 10223 10223 10222 10222
10330 10331 10332 10333 10334 10335 10336 10337 10338 10339 10339 10340 10341 10341 10342 10343 10343 10344 10344 10345 10345 10346 10346 10346 10346 10346 10346 10346 10345 10345 10345 10344 10344 10343 10343 10342 10341 10340 10340 10339 10339 10338 10337 10336 10335 10334 10333 10331 10329 10327 10325 10322 10319 10316 10313 10309 10306 10302 10298 10295 10291 10288 10284 10280 10276 10272 10268 10264 10261 10257 10253 10248 10244 10240 10237 10234 10231 10229 10226 10225 10223 10221 10218 10216 10215 10215 10214
10330 10331 10332 10332 10333 10334 10335 10336 10336 10337 10338 10338 10339 10339 10340 10340 10341 10341 10342 10342 10343 10343 10343 10343 10343 10343 10342 10342 10342 10341 10341 10340 10340 10340 10339 10338 10337 10336 10335 10335 10334 10334 10333 10332 10331 10330 10329 10327 10325 10323 10320 10317 10314 10311 10308 10305 10301 10297 10294 10290 10287 10284 10280 10276 10272 10268 10264 10260 10256 10252 10248 10244 10240 10236 10232 10229 10226 10223 10221 10218 10216 10214 10212 10210 10208 10208 10207
10329 10330 10331 10332 10333 10333 10334 10334 10335 10336 10336 10337 10337 10338 10338 10338 10339 10339 10339 10340 10340 10340 10340 10340 10340 10339 10339 10338 10338 10337 10337 10336 10336 10335 10335 10334 10333 10332 10332 10331 10330 10329 10329 10328 10327 10326 10325 10323 10321 10318 10316 10313 10310 10307 10303 10300 10297 10293 10289 10286 10283 10279 10276 10272 10268 10264 10260 10256 10252 10248 10244 10240 10236 10232 10228 10225 10221 10218 10216 10213 10211 10208 10206 10204 10202 10200 10200
10329 10330 10330 10331 10332 10332 10333 10333 10334 10334 10335 10335 10336 10336 10336 10336 10336 10337 10337 10337 10337 10337 10337 10336 10336 10336 10335 10335 10334 10334 10333 10332 10332 10331 10330 10330 10329 10329 10328 10327 10327 10326 10325 10325 10324 10322 10320 10318 10316 10313 10311 10308 10305 10302 10299 10296 10292 10289 10285 10282 10278 10275 10271 10268 10264 10260 10256 10252 10248 10244 10240 10235 10231 10227 10224 10220 10217 10213 10210 10208 10205 10203 10201 10199 10197 10194 10193
10329 10329 10330 10331 10331 10332 10332 10332 10332 10333 10333 10333 10334 10334 10334 10334 10334 10334 10334 10334 10334 10333 10333 10333 10332 10332 10331 10331 10330 10329 10329 10328 10327 10327 10326 10326 10325 10325 10324 10324 10323 10323 10322 10321 10320 10318 10316 10314 10311 10309 10306 10303 10301 10298 10295 10292 10289 10285 10281 10277 10274 10270 10267 10263 10260 10256 10252 10248 10244 10240 10236 10231 10227 10223 10219 10215 10212 10208 10205 10202 10199 10197 10195 10194 10192 10189 10187
10329 10329 10330 10330 10330 10331 10331 10331 10331 10331 10331 10331 10331 10331 10331 10331 10331 10331 10331 10330 10330 10330 10329 10329 10328 10328 10327 10327 10326 10325 10325 10324 10323 10323 10322 10322 10321 10321 10321 10320 10319 10319 10318 10317 10315 10314 10311 10309 10307 10304 10302 10299 10297 10294 10291 10288 10285 10281 10277 10273 10270 10266 10263 10259 10255 10251 10247 10244 10240 10236 10232 10228 10223 10219 10214 10210 10207 10204 10200 10197 10194 10191 10189 10188 10186 10184 10182
10328 10328 10329 10329 10329 10329 10329 10329 10329 10329 10329 10329 10329 10329 10329 10328 10328 10328 10327 10327 10326 10326 10325 10325 10324 10324 10323 10322 10322 10321 10321 10320 10320 10319 10319 10318 10318 10317 10317 10316 10316 10315 10314 10313 10311 10309 10307 10305 10303 10300 10298 10295 10293 10290 10287 10284 10281 10277 10274 10270 10266 10262 10258 10255 10251 10247 10243 10239 10235 10231 10228 10224 10219 10215 10211 10207 10203 10199 10196 10192 10189 10186 10183 10182 10180 10179 10177
10327 10327 10327 10327 10327 10326 10326 10326 10326 10326 10326 10325 10325 10325 10325 10324 10324 10324 10323 10323 10322 10322 10321 10321 10320 10320 10319 10319 10318 10318 10317 10317 10316 10316 10315 10315 10314 10314 10313 10313 10312 10311 10310 10308 10307 10305 10303 10301 10299 10296 10294 10291 10289 10286 10283 10280 10277 10273 10270 10266 10262 10258 10254 10250 10247 10243 10239 10235 10231 10227 10224 10220 10216 10212 10208 10204 10200 10196 10192 10188 10185 10181 10178 10176 10175 10173 10172
10325 10325 10325 10325 10324 10324 10324 10324 10323 10323 10322 10322 10322 10321 10321 10320 10320 10320 10319 10319 10318 10318 10317 10317 10317 10316 10316 10316 10315 10315 10314 10313 10313 10313 10312 10312 10311 10310 10310 10309 10308 10307 10305 10304 10302 10300 10298 10296 10294 10292 10290 10287 10284 10282 10279 10276 10272 10269 10265 10262 10258 10254 10250 10246 10242 10239 10235 10231 10227 10223 10220 10216 10212 10208 10204 10200 10196 10192 10189 10185 10181 10177 10174 10171 10169 10167 10166
10323 10323 10323 10323 10322 10322 10322 10321 10321 10321 10320 10320 10319 10319 10318 10318 10317 10317 10316 10316 10315 10315 10314 10314 10314 10313 10313 10312 10312 10311 10311 10310 10310 10309 10309 10308 10307 10307 10306 10305 10303 10302 10301 10299 10298 10296 10294 10292 10290 10287 10285 10282 10279 10277 10274 10271 10268 10265 10261 10258 10254 10250 10246 10242 10238 10234 10231 10227 10223 10219 10216 10212 10208 10204 10200 10196 10192 10189 10185 10181 10177 10173 10170 10166 10163 10161 10160
10322 10322 10321 10321 10321 10320 10320 10319 10319 10319 10318 10318 10317 10317 10316 10315 10315 10314 10314 10313 10312 10312 10311 10311 10310 10310 10310 10309 10309 10308 10307 10307 10307 10306 10305 10305 10304 10303 10302 10300 10299 10298 10296 10295 10293 10291 10289 10287 10285 10283 10280 10277 10275 10272 10269 10266 10263 10260 10257 10253 10250 10246 10242 10238 10234 10230 10227 10223 10219 10215 10212 10208 10204 10200 10196 10192 10188 10185 10181 10177 10173 10170 10166 10162 10159 10157 10155
10320 10320 10320 10319 10319 10318 10318 10317 10317 10316 10316 10315 10315 10314 10313 10313 10312 10311 10311 10310 10309 10309 10308 10308 10307 10307 10306 10306 10305 10305 10304 10304 10303 10302 10302 10301 10300 10299 10297 10296 10295 10294 10292 10290 10289 10287 10285 10283 10281 10278 10275 10273 10270 10267 10264 10261 10258 10255 10252 10249 10245 10242 10238 10234 10230 10226 10222 10218 10214 10210 10207 10203 10199 10195 10191 10187 10183 10180 10177 10173 10170 10166 10163 10159 10155 10152 10150
10318 10318 10317 10317 10317 10316 10316 10315 10314 10314 10313 10312 10312 10311 10311 10310 10309 10308 10307 10307 10306 10305 10305 10304 10304 10303 10303 10303 10302 10302 10301 10300 10299 10299 10298 10297 10296 10295 10293 10292 10291 10289 10288 10286 10284 10282 10280 10278 10276 10274 10271 10268 10265 10263 10260 10256 10253 10250 10247 10244 10240 10237 10233 10230 10226 10222 10218 10214 10210 10206 10202 10198 10195 10191 10188 10183 10179 10175 10172 10168 10165 10162 10159 10156 10152 10149 10145
10316 10315 10315 10314 10314 10313 10313 10312 10311 10311 10310 10309 10309 10308 10307 10307 10306 10305 10304 10303 10302 10302 10301 10301 10301 10300 10300 10299 10299 10298 10297 10296 10295 10295 10294 10293 10291 10290 10289 10288 10286 10285 10283 10281 10280 10278 10275 10273 10271 10269 10266 10264 10261 10258 10255 10252 10248 10245 10242 10238 10235 10232 10228 10225 10222 10218 10214 10210 10206 10202 10198 10194 10191 10187 10184 10180 10176 10172 10168 10164 10161 10158 10155 10152 10148 10145 10142
10313 10312 10312 10311 10311 10311 10310 10310 10309 10308 10307 10307 10306 10305 10304 10303 10303 10302 10301 10300 10300 10299 10299 10298 10298 10297 10297 10296 10295 10294 10293 10292 10292 10290 10289 10288 10287 10286 10285 10283 10282 10280 10279 10277 10275 10273 10270 10268 10266 10263 10261 10259 10256 10253 10250 10247 10243 10240 10237 10233 10230 10227 10223 10220 10217 10213 10209 10205 10201 10198 10194 10190 10186 10183 10179 10176 10172 10168 10164 10160 10157 10153 10150 10147 10144 10141 10137